Regional Weather Roundup
Issued by NWS

Home | Current Version | Previous Version | Graphics & Text | Print | Product List | Glossary On
Versions: 1 2 3 4 5 6 7 8 9 10 11 12 13 14 15 16 17 18 19 20 21 22 23 24 25 26 27 28 29 30 31 32 33 34 35 36 37 38 39 40 41 42 43 44 45 46 47 48 49 50
000
ASUS43 KLOT 240708
RWRIL

ILLINOIS REGIONAL WEATHER ROUNDUP
NATIONAL WEATHER SERVICE CHICAGO/ROMEOVILLE IL
100 AM CST WED JAN 24 2018

NOTE: "FAIR" INDICATES FEW OR NO CLOUDS BELOW 12,000 FEET WITH NO
SIGNIFICANT WEATHER AND/OR OBSTRUCTIONS TO VISIBILITY.

* THESE STATIONS ARE NOT UNDER NWS QUALITY CONTROL. THEY ALSO MAY NOT
  REPORT WEATHER SUCH AS PRECIPITATION OR FOG.

ILZ001-002-007-009-015-016-024-240800-
NORTHWEST ILLINOIS

CITY           SKY/WX    TMP DP  RH WIND       PRES   REMARKS
MOLINE         CLOUDY    26  18  71 W8        30.21S WCI  18
STERLING*        N/A     26  22  84 MISG        N/A
SAVANNA*       CLOUDY    25  20  83 N5        30.21S WCI  19
$$

ILZ003-004-008-010-011-017-018-240800-
NORTH CENTRAL ILLINOIS

CITY           SKY/WX    TMP DP  RH WIND       PRES   REMARKS
ROCKFORD       FLURRIES  27  22  81 W7        30.18R WCI  19
FREEPORT*      CLOUDY    26  22  86 NW8       30.19R WCI  17
ROCHELLE*      CLOUDY    26  24  93 W10       30.19R WCI  16
DE KALB*       CLOUDY    28  25  89 W8        30.16S WCI  19
PERU*          CLOUDY    25  21  85 W7        30.21R WCI  17
$$

ILZ005-006-012>014-019>023-240800-
NORTHEAST ILLINOIS

CITY           SKY/WX    TMP DP  RH WIND       PRES   REMARKS
CHICAGO-OHARE  CLOUDY    28  21  75 NW8       30.15S WCI  20
CHICAGO-MIDWAY CLOUDY    29  23  78 NW8       30.16S WCI  21
AURORA         CLOUDY    29  24  82 NW6       30.17R WCI  23
LANSING*       CLOUDY    28  25  87 W5        30.17R WCI  23
JOLIET*        CLOUDY    31  26  84 NW3       30.18R
WAUKEGAN       CLOUDY    27  23  85 CALM      30.14F
DUPAGE AIRPORT CLOUDY    27  24  89 NW5       30.16R WCI  22
KANKAKEE*      DRIZZLE  N/A N/A N/A W15       30.19R
WHEELING       CLOUDY    28  22  78 NW5       30.17S WCI  23
MORRIS*        CLOUDY    28  26  89 W8        30.18R WCI  20
ROMEOVILLE*    CLOUDY    28  25  86 N5        30.18R WCI  23
NORTHERLY ISL    N/A     28  22  78 W6          N/A  WCI  22
$$

LMZ740>746-240800-
SOUTHERN LAKE MICHIGAN

STATION/POSITION SKY/WX   TEMP    WIND        PRES    VSBY  WAVE
                          AIR SEA DIR/SP/G                  HT/PER
                          (F)     (DEG/KT/KT) (MB)    (MI)  (FT/S)
HARRISON CRIB              29     330/  9/ 11   N/A
BURNHAM HARBOR             28      CALM  / 11   N/A
CALUMET HARBOR             28     310/  4/  6 1020.6F
BURNS HARBOR               29     300/  9/ 12 1021.7S
MICHIGAN CITY              29     270/ 11/ 13   N/A
$$

ILZ025>027-034>036-040-047-049-050-058-095>099-240800-
WEST-CENTRAL ILLINOIS

CITY           SKY/WX    TMP DP  RH WIND       PRES   REMARKS
QUINCY         CLOUDY    27  21  78 W7        30.24S WCI  19
GALESBURG*     CLOUDY    26  21  81 NW8       30.22S WCI  18
MACOMB*        CLOUDY    28  22  77 NW7       30.25S WCI  21
JACKSONVILLE*  CLOUDY    29  23  79 W10       30.24S WCI  19
PITTSFIELD*    CLOUDY    29  24  79 W8        30.25F WCI  21
$$

ILZ028>032-037-038-041>044-048-051>054-059>061-240800-
CENTRAL ILLINOIS

CITY           SKY/WX    TMP DP  RH WIND       PRES   REMARKS
PONTIAC        CLOUDY    28  26  93 W9        30.21R WCI  19
BLOOMINGTON    CLOUDY    27  22  81 NW8       30.20S WCI  19
DECATUR        CLOUDY    29  22  75 W10       30.22R WCI  20
PEORIA         CLOUDY    28  20  71 NW8       30.22S WCI  20
LACON*         CLOUDY    26  20  79 NW8       30.21S WCI  18
LINCOLN*       CLOUDY    29  23  77 NW8       30.23R WCI  21
SPRINGFIELD    CLOUDY    30  24  78 NW7       30.24R WCI  23
TAYLORVILLE    CLOUDY    30  24  80 W7        30.24R WCI  23
$$

ILZ033-039-045-046-055>057-062-063-240800-
EAST-CENTRAL ILLINOIS

CITY           SKY/WX    TMP DP  RH WIND       PRES   REMARKS
CHAMPAIGN      CLOUDY    30  25  81 W13       30.20S WCI  20
DANVILLE*      CLOUDY    28  26  91 W9        30.17S WCI  20
RANTOUL*       CLOUDY    31  26  83 W13       30.19S WCI  21
MATTOON        CLOUDY    29  24  82 W8        30.21S WCI  21
PARIS*         CLOUDY    30  27  86 W13       30.22S WCI  20
$$

ILZ079-100>102-240800-
SOUTHWEST ILLINOIS

CITY           SKY/WX    TMP DP  RH WIND       PRES   REMARKS
ALTON          CLOUDY    32  26  80 W7        30.25F WCI  25
BELLEVILLE     CLOUDY    34  24  67 NW8       30.24S WCI  27
CAHOKIA*       CLOUDY    34  22  61 NW13G21   30.26R WCI  25
SPARTA*        CLOUDY    33  26  75 W3        30.26S
$$

ILZ064>066-069>071-074>076-080>082-084>086-088>090-092>094-240800-
SOUTH-CENTRAL ILLINOIS

CITY           SKY/WX    TMP DP  RH WIND       PRES   REMARKS
CARBONDALE     CLOUDY    35  25  66 W7        30.26F WCI  29
CAIRO*         FAIR      28  27  96 SW3       30.27F
EFFINGHAM*     CLOUDY    32  26  78 W7        30.25F WCI  26
MARION         CLOUDY    34  24  68 W3        30.27S
MT. VERNON     CLOUDY    34  26  72 NW3       30.25F
CENTRALIA*     CLOUDY    34  28  79 NW8       30.24F WCI  27
SALEM*         CLOUDY    34  27  74 W7        30.24F WCI  28
METROPOLIS*    MOCLDY    32  29  90 CALM      30.27S
$$

ILZ067-068-072-073-078-083-087-091-240800-
SOUTHEAST ILLINOIS

CITY           SKY/WX    TMP DP  RH WIND       PRES   REMARKS
LAWRENCEVILLE  CLOUDY    33  26  75 W9        30.25S WCI  25
FLORA*         CLOUDY    34  28  79 NW5       30.25F WCI  30
FAIRFIELD*     CLOUDY    33  28  82 CALM      30.24F
HARRISBURG*    CLOUDY    35  27  73 NW10      30.27F WCI  27
ROBINSON*      CLOUDY    31  26  84 NW14      30.25S WCI  20
CARMI*         CLOUDY    34  28  77 W6        30.25F WCI  29
$$

ABBREVIATIONS USED IN REMARKS
   TC - TEMPERATURE IN CELSIUS
  WCI - WIND CHILL INDEX
   HX - HEAT INDEX
  VSB - VISIBILITY
$$





USA.gov is the U.S. government's official web portal to all federal, state and local government web resources and services.